Regional Weather Roundup
Issued by NWS

Home | Current Version | Previous Version | Text Only | Print | Product List | Glossary Off
Versions: 1 2 3 4 5 6 7 8 9 10 11 12 13 14 15 16 17 18 19 20 21 22 23 24 25 26 27 28 29 30 31 32 33 34 35 36 37 38 39 40 41 42 43 44 45 46 47 48 49 50

500
ASUS43 KFSD 190710
RWRSD

WEATHER ROUNDUP FOR SOUTH DAKOTA
NATIONAL WEATHER SERVICE SIOUX FALLS SD
100 AM CST MON FEB 19 2018

NOTE: "FAIR" INDICATES FEW OR NO CLOUDS BELOW 12,000 FEET WITH NO
SIGNIFICANT WEATHER AND/OR OBSTRUCTIONS TO VISIBILITY.


SDZ001>005-009-010-012>017-190800-
NORTHWEST AND NORTH CENTRAL SOUTH DAKOTA

CITY           SKY/WX    TMP DP  RH WIND       PRES   REMARKS
BUFFALO          N/A      4  -1  80 NE13      29.89F WCI -13
FAITH            N/A      4   2  91 N22       29.98F WCI -18
MOBRIDGE       LGT SNOW   9   3  77 N17G24    29.99F WCI  -9
$$

SDZ012>016-024>037-041>051-057-063-072>074-190800-
SOUTHWEST AND SOUTH CENTRAL SOUTH DAKOTA

CITY           SKY/WX    TMP DP  RH WIND       PRES   REMARKS
RAPID CTY ARPT LGT SNOW   4   0  83 N21G29    29.90F FOG     WCI -17
PIERRE         LGT SNOW   9   6  88 N28G38    29.92R VSB 1   WCI -13
CUSTER         FLURRIES   3  -2  79 N5        29.65F WCI  -6
ELLSWORTH AFB  MOCLDY     5   1  85 N21       29.90  BLWGSNOWWCI -16
PHILIP         LGT SNOW   8   5  87 N20       30.00R FOG     WCI -11
PINE RIDGE     LGT SNOW   7   2  80 N13G18    29.89S WCI  -9
SPEARFISH      LGT SNOW   3   0  85 NE6       29.89F WCI  -8
WINNER         LGT SNOW  13   8  81 N20G28    29.91R WCI  -5
$$

SDZ004>011-016>023-039-040-190800-
NORTHEAST SOUTH DAKOTA

CITY           SKY/WX    TMP DP  RH WIND       PRES   REMARKS
ABERDEEN       FLURRIES  11   3  70 N20G31    30.03R WCI  -7
WATERTOWN      CLOUDY    11   6  81 N23G31    29.85S WCI  -9
BROOKINGS      FLURRIES  13   9  84 N20G25    29.81R WCI  -5
SISSETON         N/A     11   6  81 N25G31    29.99R WCI -10
$$

SDZ017-020-022-023-036>040-048>070-190800-
SOUTHEAST SOUTH DAKOTA

CITY           SKY/WX    TMP DP  RH WIND       PRES   REMARKS
SIOUX FALLS    CLOUDY    19  14  81 N12G24    29.79R WCI   7
HURON          CLOUDY    12   7  80 N28G40    29.89S WCI  -9
CHAMBERLAIN    LGT SNOW  13  10  87 NW15G24   29.93F WCI  -3
MITCHELL       FLURRIES  14   9  80 N21G30    29.89R WCI  -4
YANKTON        CLOUDY    21  17  84 N21       29.78S WCI   5
$$

ABBREVIATIONS USED IN REMARKS
   TC - TEMPERATURE IN CELSIUS
  WCI - WIND CHILL INDEX
   HX - HEAT INDEX
  VSB - VISIBILITY





USA.gov is the U.S. government's official web portal to all federal, state and local government web resources and services.